Tracking 19562 objects as of 22-Mar-2019
HD Live streaming from Space Station
objects crossing your sky now

COSMOS 1321

Track COSMOS 1321 now!
10-day predictions
COSMOS 1321 is classified as:


NORAD ID: 12976
Int'l Code: 1981-116B
Perigee: 1,489.0 km
Apogee: 1,637.9 km
Inclination: 74.0 °
Period: 117.2 minutes
Semi major axis: 7934 km
RCS: 0.6999 m2 (medium)
Launch date: November 28, 1981
Source: Commonwealth of Independent States (former USSR) (CIS)
Launch site: PLESETSK MISSILE AND SPACE COMPLEX (PKMTR)
aabbcc
Your satellite tracking list
Your tracking list is empty




NASA's NSSDC Master Catalog

Two Line Element Set (TLE):
1 12976U 81116B   19079.75265405 -.00000018  00000-0 -26427-4 0  9998
2 12976  73.9825 191.7039 0093802 109.0595  44.9693 12.28365008673121
Source of the keplerian elements: AFSPC